Weather History for Elko, NV

Change the Weather History Date:

Friday, November 9, 2012

  Actual Average Record
Temperature  
Mean Temperature 27 °F 37 °F  
Max Temperature 37 °F 52 °F 76 °F (1894)
Min Temperature 17 °F 23 °F 3 °F (1952)
Degree Days  
Heating Degree Days 38 28  
Month to date heating degree days 194 234  
Since 1 July heating degree days 761 1063  
Cooling Degree Days 0 0  
Month to date cooling degree days 0 0  
Year to date cooling degree days 682 383  
Moisture  
Dew Point 21 °F    
Average Humidity 68    
Maximum Humidity 92    
Minimum Humidity 44    
Precipitation  
Precipitation T in 0.04 in 0.47 in (2008)
Month to date precipitation T 0.32  
Year to date precipitation 5.24 7.92  
Snow  
Snow T in 0.10 in 4.50 in (1945)
Month to date snowfall T 0.7  
Since 1 July snowfall 0.3 1.4  
Since 1 September snowfall 0.3 1.4  
Snow Depth 0.00 in    
Sea Level Pressure  
Sea Level Pressure 29.73 in    
Wind  
Wind Speed 6 mph (SW)    
Max Wind Speed 15 mph    
Max Gust Speed 18 mph    
Visibility 10 miles    
Events      
T = Trace of Precipitation, MM = Missing Value Source: NWS Daily Summary

Daily Weather History Graph

Daily Weather History Graph

Search for Another Location

Airport:

Trip Planner

Search our weather history database for the weather conditions in past years. The results will help you decide how hot, cold, wet, or windy it might be!

Date:

Astronomy

Nov. 09, 2012 Rise Set
Actual Time 6:23 AM PST 4:29 PM PST
Civil Twilight 5:54 AM PST 4:58 PM PST
Nautical Twilight 5:21 AM PST 5:31 PM PST
Astronomical Twilight 4:49 AM PST 6:03 PM PST
Moon 1:25 AM PST (11/9) 1:46 PM PST (11/9)
Length of Visible Light 11h 04m
Length of Day
10h 05m
Waning Crescent, 22% of the Moon is Illuminated
Nov 9
Waning Crescent
Nov 13
New
Nov 20
First Quarter
Nov 28
Full
Dec 6
Last Quarter

Hourly Weather History & Observations

Time (PST) Temp. Windchill Dew Point Humidity Pressure Visibility Wind Dir Wind Speed Gust Speed Precip Events Conditions
12:56 AM 34.0 °F 25.5 °F 27.0 °F 75% 29.65 in 10.0 mi West 11.5 mph - 0.00 in   Overcast
1:56 AM 33.1 °F 27.7 °F 27.0 °F 78% 29.65 in 10.0 mi South 5.8 mph - N/A   Overcast
2:49 AM 32.0 °F 28.7 °F 26.6 °F 80% 29.71 in 10.0 mi SW 3.5 mph - N/A   Overcast
2:56 AM 32.0 °F 26.4 °F 27.0 °F 82% 29.68 in 10.0 mi SW 5.8 mph - N/A   Overcast
3:56 AM 32.0 °F - 28.0 °F 85% 29.70 in 10.0 mi Calm Calm - 0.00 in   Overcast
4:56 AM 32.0 °F 23.6 °F 25.0 °F 75% 29.70 in 10.0 mi WSW 10.4 mph - N/A   Overcast
5:56 AM 30.9 °F 24.3 °F 24.1 °F 76% 29.72 in 10.0 mi South 6.9 mph - N/A   Overcast
6:56 AM 30.0 °F 26.5 °F 24.1 °F 79% 29.74 in 10.0 mi SSW 3.5 mph - N/A   Overcast
7:56 AM 32.0 °F 27.5 °F 24.1 °F 73% 29.74 in 10.0 mi SW 4.6 mph - N/A   Overcast
8:56 AM 34.0 °F 27.2 °F 23.0 °F 64% 29.73 in 10.0 mi SSW 8.1 mph - N/A   Overcast
9:56 AM 35.1 °F 27.9 °F 21.0 °F 57% 29.74 in 10.0 mi West 9.2 mph - N/A   Mostly Cloudy
10:56 AM 36.0 °F 29.6 °F 18.0 °F 48% 29.72 in 10.0 mi WNW 8.1 mph - N/A   Overcast
11:56 AM 36.0 °F 28.5 °F 18.0 °F 48% 29.70 in 10.0 mi WSW 10.4 mph - 0.00 in   Overcast
12:56 PM 36.0 °F 29.6 °F 16.0 °F 44% 29.69 in 10.0 mi West 8.1 mph - N/A   Scattered Clouds
1:56 PM 36.0 °F 28.5 °F 17.1 °F 46% 29.68 in 10.0 mi West 10.4 mph 18.4 mph N/A   Overcast
2:56 PM 34.0 °F 26.0 °F 19.9 °F 56% 29.71 in 10.0 mi SSW 10.4 mph - N/A   Overcast
3:56 PM 34.0 °F 28.0 °F 19.0 °F 54% 29.71 in 10.0 mi SSW 6.9 mph - N/A   Overcast
4:56 PM 30.0 °F 25.2 °F 21.9 °F 72% 29.74 in 10.0 mi South 4.6 mph - N/A   Scattered Clouds
5:56 PM 25.0 °F 20.7 °F 19.0 °F 78% 29.77 in 10.0 mi South 3.5 mph - N/A   Clear
6:56 PM 21.9 °F 15.7 °F 17.1 °F 82% 29.80 in 10.0 mi WSW 4.6 mph - N/A   Mostly Cloudy
7:56 PM 21.9 °F 15.7 °F 17.1 °F 82% 29.79 in 10.0 mi West 4.6 mph - N/A   Overcast
8:56 PM 19.9 °F - 16.0 °F 85% 29.81 in 10.0 mi Calm Calm - N/A   Partly Cloudy
9:56 PM 19.0 °F 11.1 °F 15.1 °F 85% 29.81 in 10.0 mi SW 5.8 mph - N/A   Mostly Cloudy
10:56 PM 18.0 °F 12.7 °F 15.1 °F 88% 29.81 in 10.0 mi WSW 3.5 mph - N/A   Scattered Clouds
11:56 PM 18.0 °F 12.7 °F 14.0 °F 84% 29.81 in 10.0 mi SW 3.5 mph - N/A   Mostly Cloudy